Temperature
11 11 11 11 12 12 12 12 13 13 13 13 13 13 13 13 13 13 13 13 13 13 12 12 12 12 12 12 12 11 11 11 11 10 10 10 10 10 10 10 10 10 10
10 10 10 11 11 12 12 12 12 12 12 13 13 13 13 13 13 13 12 12 12 12 12 12 12 12 12 11 11 11 11 11 10 10 9 9 9 10 10 10 10 10 9
9 9 10 10 11 11 12 12 12 12 12 12 12 12 12 12 12 12 12 12 12 12 12 12 12 12 11 11 11 11 11 11 10 10 9 9 10 9 9 9 9 9 9
9 9 9 10 10 11 11 11 12 12 12 12 12 12 12 12 12 12 12 12 12 12 12 12 11 11 11 11 11 11 10 10 10 10 9 9 9 9 8 9 9 9 9
8 8 8 9 10 10 11 11 11 11 11 11 12 12 11 12 12 12 12 12 12 11 11 11 11 11 11 11 11 11 10 10 10 10 9 9 9 9 8 8 8 8 8
8 8 8 9 9 9 10 11 11 11 11 11 11 11 11 11 11 11 11 11 11 11 11 11 11 11 11 11 11 10 10 10 10 9 9 9 8 8 8 7 7 7 7
7 8 8 8 9 9 10 10 10 10 10 10 10 11 11 11 11 11 11 11 11 11 11 10 10 10 10 10 10 10 10 9 9 9 9 9 8 8 8 7 7 7 7
7 7 7 8 8 9 9 10 10 10 10 10 10 10 10 10 10 10 10 10 10 10 10 10 10 10 10 10 9 9 9 9 9 9 9 8 8 8 7 7 6 6 6
6 7 7 7 8 8 9 9 9 9 9 9 9 9 9 10 10 10 10 10 10 10 10 10 10 9 9 9 9 9 9 9 8 8 8 8 7 7 7 7 6 6 5
5 6 6 7 7 8 8 8 9 9 9 9 9 9 9 9 9 9 9 9 9 9 9 9 9 9 9 8 8 8 8 8 8 8 7 7 7 7 7 6 6 6 5
5 5 6 6 7 7 8 8 8 8 8 8 8 8 8 8 8 8 9 9 9 8 8 9 8 8 8 8 8 8 7 7 7 7 7 7 7 6 6 6 6 5 5
4 4 5 6 6 7 7 7 7 8 8 8 8 8 8 8 8 8 8 8 8 8 8 8 8 8 8 7 7 7 7 7 7 6 6 6 6 6 6 5 5 5 5
4 4 4 5 5 6 6 7 7 7 7 7 7 7 7 7 7 7 7 7 7 7 7 7 7 7 7 7 6 6 6 6 6 6 5 5 5 5 5 5 5 4 4
3 3 4 4 4 5 5 6 6 6 6 6 7 7 7 7 7 7 7 7 6 6 6 6 6 6 6 6 6 6 6 5 5 5 5 5 5 4 4 4 4 4 3
2 2 2 3 3 4 4 5 5 5 6 6 6 6 6 6 6 6 6 6 6 6 6 6 6 5 5 5 5 5 5 5 5 5 4 4 4 4 4 4 3 3 3
1 1 2 2 3 3 4 4 4 5 5 5 5 5 5 5 5 5 5 5 5 5 5 5 5 5 5 5 4 4 4 4 4 4 4 4 4 3 3 3 3 3 2
0 0 1 2 2 2 3 3 4 4 4 4 4 5 5 5 5 5 5 4 4 4 4 4 4 4 4 4 4 4 4 3 3 3 3 3 3 3 3 3 2 2 2
-0 0 1 1 2 2 2 3 3 3 4 4 4 4 4 4 4 4 4 4 3 3 3 3 3 3 3 3 3 3 3 3 3 2 2 2 2 2 2 2 2 2 2
-1 -0 0 1 1 1 2 2 2 3 3 3 3 3 3 3 3 3 3 3 3 3 3 3 3 3 3 2 2 2 2 2 2 2 2 2 2 2 1 1 1 1 1
-1 -0 0 0 0 1 1 1 2 2 2 2 2 2 2 2 2 2 2 2 2 2 2 2 2 2 2 2 2 2 1 1 1 1 1 1 1 1 1 1 1 1 0
-1 -1 -0 -0 -0 0 0 1 1 1 1 1 1 1 1 1 1 1 1 1 1 1 1 1 1 1 1 1 1 1 1 1 1 1 1 1 1 0 0 0 0 -0 -0
-2 -1 -1 -1 -1 -0 -0 0 0 0 0 1 1 1 1 1 1 1 1 1 0 0 0 0 0 0 0 0 0 0 0 0 0 -0 -0 -0 -0 -0 -0 -0 -0 -1 -1
-2 -2 -2 -1 -1 -1 -1 -1 -1 -0 -0 -0 -0 -0 -0 -0 -0 -0 -0 -0 -0 -0 -0 -0 -0 -0 -0 -0 -0 -0 -0 -1 -1 -1 -1 -1 -1 -1 -1 -1 -1 -1 -1
-3 -3 -2 -2 -2 -2 -2 -1 -1 -1 -1 -1 -1 -1 -1 -1 -1 -1 -1 -1 -1 -1 -1 -1 -1 -1 -1 -1 -1 -1 -1 -1 -1 -1 -1 -1 -1 -2 -2 -2 -2 -2 -2
-3 -3 -3 -3 -3 -3 -3 -2 -2 -2 -2 -2 -2 -2 -2 -2 -2 -1 -1 -1 -1 -1 -1 -1 -1 -1 -1 -2 -2 -2 -2 -2 -2 -2 -2 -2 -2 -2 -2 -2 -2 -3 -3
-3 -4 -4 -4 -3 -3 -3 -3 -3 -3 -3 -3 -2 -2 -2 -2 -2 -2 -2 -2 -2 -2 -2 -2 -2 -2 -2 -2 -2 -3 -3 -3 -3 -3 -3 -3 -3 -3 -3 -3 -3 -3 -3
Wind_Speed
5 4 4 4 5 5 6 7 8 9 8 7 8 7 8 7 7 7 9 10 10 10 9 7 7 7 6 7 7 6 5 4 4 2 1 2 2 3 3 3 2 2 3
4 3 3 3 4 4 5 6 7 8 9 8 8 7 7 6 6 6 8 10 10 10 9 9 7 7 6 7 7 6 4 3 4 3 2 2 3 3 3 3 3 3 2
4 4 3 3 4 4 5 5 7 7 8 9 7 6 5 5 5 7 6 7 9 10 10 9 8 8 7 7 8 8 7 5 4 4 3 3 3 2 3 3 3 3 2
4 4 4 4 4 5 5 5 6 7 7 8 9 11 9 8 7 7 7 8 9 9 9 9 9 8 7 8 8 8 6 6 5 4 3 3 2 3 2 3 3 3 3
4 4 4 4 5 5 4 5 5 6 6 8 9 10 10 8 7 7 8 8 8 8 9 9 8 8 7 8 8 7 7 6 6 5 3 3 3 4 4 4 3 3 3
6 5 5 4 4 4 4 4 5 5 6 7 8 9 10 9 9 8 8 7 6 7 8 8 8 8 7 7 7 7 7 7 7 5 4 4 3 3 4 5 5 5 4
5 5 5 5 5 5 4 4 5 5 5 6 7 8 9 10 11 9 9 8 7 6 8 8 8 7 7 7 6 6 6 6 6 6 5 4 4 3 3 4 5 5 4
6 6 6 5 5 5 5 4 5 5 5 6 6 6 7 6 7 9 8 8 7 6 7 8 7 7 7 7 6 5 5 5 6 6 5 4 4 4 4 4 4 5 5
8 7 6 6 5 5 5 5 5 5 5 6 5 6 6 6 6 7 7 6 6 6 7 7 7 7 6 6 6 5 5 5 5 5 5 4 3 3 4 4 5 5 6
9 7 6 6 5 4 4 4 5 5 5 5 5 4 5 5 5 5 6 6 6 6 7 7 6 6 6 5 5 5 5 5 4 4 4 4 3 3 3 4 4 5 6
9 8 7 6 5 4 2 2 3 3 4 5 5 4 5 4 4 5 6 6 6 6 7 7 6 6 5 5 5 5 5 5 4 4 4 4 4 4 3 4 4 4 5
8 8 7 6 5 4 3 2 2 2 3 3 4 4 4 4 4 4 5 6 6 6 6 6 6 6 6 5 5 5 5 5 4 4 4 4 3 4 4 4 4 4 5
8 8 7 7 6 5 4 3 2 1 1 2 4 4 4 4 5 5 4 4 5 6 6 6 6 6 5 5 5 5 4 4 4 4 4 4 4 4 4 4 4 4 4
9 9 8 7 7 6 5 4 3 2 0 1 3 4 4 4 4 5 5 4 5 5 6 6 5 5 5 5 4 4 3 3 3 3 3 4 4 4 4 4 4 4 4
10 9 9 8 8 7 7 5 4 2 1 1 2 2 3 3 4 4 4 4 4 4 5 5 5 5 5 4 4 4 4 3 3 3 4 4 3 4 4 4 4 4 4
10 10 9 9 8 8 7 6 5 3 1 1 1 2 3 3 3 3 4 4 4 4 4 5 5 5 3 5 5 4 4 4 3 3 3 3 4 4 4 3 4 4 5
9 9 9 8 8 7 6 5 5 3 1 1 1 2 3 3 3 3 3 4 4 4 4 4 4 4 4 6 5 4 3 3 3 3 3 3 2 3 3 3 3 4 5
9 9 8 8 8 7 6 5 4 2 1 1 2 2 3 3 3 3 3 3 3 3 4 4 4 4 4 6 5 4 3 2 3 3 4 4 3 3 3 3 3 4 4
8 8 8 7 7 7 6 4 3 2 1 1 1 2 2 3 3 3 3 3 3 3 3 3 3 4 4 6 5 3 2 2 2 3 3 3 3 3 3 4 4 5 4
7 7 7 7 6 6 5 4 4 2 1 1 1 1 2 3 3 2 2 2 3 3 3 3 3 3 4 5 4 3 2 2 2 2 2 3 3 3 4 4 4 5 5
7 7 6 6 6 6 5 4 4 3 2 2 1 1 1 2 2 2 2 3 3 3 3 3 2 2 3 4 4 3 2 2 2 2 2 2 3 4 5 5 5 5 5
6 6 6 6 6 6 5 4 4 4 3 2 2 2 1 1 2 3 2 3 4 4 3 3 2 1 2 2 2 2 2 2 3 3 2 2 3 4 5 5 4 5 5
6 5 5 5 6 5 4 3 3 3 3 2 2 2 2 2 2 2 3 3 3 3 2 2 2 1 1 1 2 2 2 2 2 2 3 4 4 4 4 3 4 4 3
5 5 5 5 5 5 4 3 3 2 2 2 2 2 2 2 2 2 1 2 2 2 2 2 2 2 1 1 1 1 1 1 1 2 1 2 2 2 2 3 3 2 3
4 4 4 4 5 5 5 4 3 2 2 2 1 1 1 1 1 1 1 0 1 2 2 2 2 2 3 3 3 2 2 2 2 1 2 2 2 2 2 2 2 2 2
3 3 4 4 4 4 4 4 3 2 1 1 1 0 1 1 1 1 1 2 1 1 0 1 2 2 3 3 3 3 3 3 3 2 2 2 2 2 2 2 2 2 2
Wind_Direction
268 271 266 248 224 216 216 214 206 199 191 189 190 189 188 188 188 189 187 187 185 184 185 180 178 182 183 182 178 170 163 167 165 175 197 215 228 231 227 227 228 221 224
288 285 276 260 232 220 221 216 206 201 198 196 195 194 188 187 187 185 188 188 187 188 189 188 185 186 185 184 181 176 177 181 196 204 213 227 223 220 232 233 236 243 236
280 277 273 265 249 231 226 222 209 201 200 195 186 177 177 179 186 188 188 188 188 189 190 192 189 188 189 189 189 189 194 192 199 218 229 236 239 231 210 227 235 237 250
289 282 274 267 254 242 235 229 212 201 200 192 191 189 191 194 200 195 190 187 187 188 188 190 190 189 191 193 193 195 198 195 197 205 233 254 263 245 240 221 228 242 257
291 286 277 264 252 245 236 230 210 200 201 199 198 200 202 201 194 188 185 184 183 185 187 189 189 190 191 194 193 196 199 202 205 204 206 218 232 244 249 255 249 246 247
299 293 288 275 258 253 241 228 208 202 201 201 201 202 201 197 189 190 188 187 185 184 188 190 191 191 190 194 196 198 201 204 207 209 209 213 219 225 235 251 263 269 263
304 300 295 288 275 260 243 226 214 208 204 201 203 204 201 198 195 193 194 191 189 189 190 190 192 191 190 193 194 199 204 205 205 209 213 218 228 234 240 252 265 273 275
317 308 298 289 279 264 245 227 220 215 205 203 204 206 201 195 195 197 197 197 195 190 187 189 189 189 189 190 191 197 205 206 206 210 212 217 224 225 234 244 257 269 268
331 322 311 300 289 274 253 235 222 215 207 204 198 198 197 195 191 193 195 195 190 183 181 183 182 184 187 190 189 195 200 204 208 209 212 220 227 231 236 239 242 254 268
334 330 321 313 306 288 268 247 226 215 209 204 199 197 196 191 184 182 189 186 183 177 173 175 179 182 185 189 190 192 199 204 208 211 215 220 226 229 232 237 244 250 258
335 334 329 324 321 318 298 278 246 221 208 204 197 188 184 181 176 179 187 182 177 178 178 177 180 184 187 188 189 191 193 201 206 210 216 223 224 228 233 235 238 246 252
336 337 337 336 338 339 334 322 285 241 210 196 190 180 172 171 172 176 182 180 179 183 184 179 181 183 187 189 189 194 197 198 207 215 220 230 230 233 235 236 241 250 256
341 345 345 346 345 344 346 341 315 289 225 192 178 170 168 171 174 172 172 173 175 179 181 182 183 184 186 188 193 199 204 206 213 218 222 230 233 239 240 244 250 256 261
343 347 346 346 347 347 349 347 338 333 265 175 165 165 168 173 170 167 168 168 170 178 181 180 183 183 181 184 187 193 201 211 217 219 223 229 233 240 243 248 255 262 269
344 346 347 346 349 350 348 345 344 344 347 127 135 161 164 161 154 153 158 158 163 173 175 174 180 182 184 186 182 183 187 195 210 218 223 231 236 248 253 255 260 263 267
339 341 344 345 346 345 341 339 340 345 4 98 119 138 137 134 140 148 149 148 153 159 164 170 176 178 177 162 168 180 186 192 206 220 229 232 232 235 248 267 278 277 272
334 336 336 336 336 334 333 332 332 342 5 76 110 124 125 126 130 136 140 147 152 152 156 162 162 162 155 158 166 174 193 201 207 217 227 234 238 248 253 261 268 271 272
329 330 331 331 332 333 338 337 334 343 5 99 121 124 124 122 123 133 141 146 150 152 154 158 159 155 154 153 158 169 191 203 215 226 230 233 239 244 256 268 275 280 281
323 324 327 328 330 335 338 339 345 356 25 77 101 115 127 129 132 138 149 152 148 145 146 151 154 153 154 150 151 154 180 200 216 229 237 241 248 244 258 264 267 277 283
327 329 330 333 337 338 337 339 348 359 14 18 61 98 124 133 139 148 150 146 141 141 140 141 149 153 158 156 160 167 187 198 219 233 241 246 253 262 271 264 266 272 281
328 332 334 336 336 339 342 343 346 351 355 21 54 63 92 122 137 141 141 136 133 132 132 133 138 148 156 162 170 186 206 213 234 245 253 258 259 277 282 279 271 272 281
329 334 336 338 340 344 347 348 350 356 10 38 58 66 77 98 121 132 134 139 141 140 138 136 133 139 155 171 189 211 236 242 244 254 259 265 276 290 292 288 282 285 288
326 330 334 337 342 350 356 3 359 9 27 49 60 72 80 88 105 122 137 145 150 150 151 155 166 180 195 194 198 215 239 255 262 263 266 276 284 295 295 291 292 294 284
324 327 333 339 341 348 356 358 357 13 40 56 55 65 78 78 84 101 130 155 162 163 167 179 192 207 219 226 231 242 259 262 263 271 277 298 303 301 301 305 306 294 281
316 321 327 330 334 343 350 354 360 20 41 51 57 69 83 94 88 83 80 163 205 197 196 206 210 213 230 243 257 268 271 266 253 272 280 277 278 281 293 304 308 306 297
308 316 323 327 332 340 345 347 351 6 40 51 51 73 115 118 125 113 64 45 54 58 354 261 252 249 248 258 263 265 268 262 242 252 249 254 257 262 274 286 297 304 305
Height
1496 1497 1497 1498 1499 1500 1501 1503 1505 1507 1510 1513 1515 1518 1521 1524 1526 1529 1531 1533 1535 1537 1539 1540 1542 1543 1545 1546 1547 1548 1549 1549 1550 1551 1551 1550 1550 1550 1549 1549 1549 1548 1547
1493 1493 1494 1494 1495 1496 1498 1499 1501 1504 1506 1509 1512 1515 1517 1520 1523 1526 1528 1530 1532 1534 1536 1538 1539 1540 1542 1543 1544 1545 1546 1547 1548 1549 1549 1549 1550 1547 1547 1546 1546 1546 1545
1491 1490 1490 1491 1492 1493 1494 1496 1498 1500 1502 1505 1508 1511 1513 1516 1519 1521 1524 1526 1528 1531 1533 1535 1536 1537 1539 1540 1541 1543 1543 1544 1545 1546 1547 1547 1547 1546 1545 1544 1543 1543 1542
1489 1488 1487 1488 1488 1489 1491 1492 1494 1496 1498 1501 1503 1506 1508 1510 1513 1517 1520 1522 1525 1527 1529 1531 1533 1534 1535 1537 1538 1539 1540 1541 1541 1542 1543 1544 1543 1544 1543 1542 1541 1540 1539
1486 1485 1485 1485 1485 1486 1487 1489 1491 1492 1495 1497 1499 1502 1505 1507 1511 1514 1516 1518 1520 1523 1525 1527 1528 1530 1531 1533 1534 1535 1537 1537 1538 1538 1539 1539 1539 1540 1540 1539 1538 1537 1536
1484 1483 1482 1482 1482 1483 1484 1485 1487 1488 1490 1492 1495 1497 1500 1503 1506 1509 1511 1513 1516 1518 1520 1522 1524 1526 1527 1529 1530 1531 1532 1533 1534 1535 1535 1536 1536 1536 1536 1535 1534 1533 1532
1481 1480 1479 1479 1479 1479 1480 1482 1483 1484 1486 1488 1491 1493 1496 1499 1501 1504 1507 1509 1511 1513 1515 1518 1520 1521 1523 1524 1526 1527 1528 1529 1530 1531 1531 1532 1532 1532 1532 1532 1530 1529 1528
1479 1477 1476 1476 1476 1476 1477 1478 1479 1480 1482 1484 1487 1489 1492 1494 1497 1500 1503 1505 1507 1509 1511 1513 1515 1517 1518 1520 1521 1523 1524 1525 1526 1527 1527 1527 1528 1528 1528 1528 1528 1526 1524
1476 1475 1474 1474 1473 1473 1473 1474 1476 1477 1479 1480 1483 1485 1488 1490 1493 1495 1498 1501 1503 1505 1507 1509 1511 1513 1514 1516 1517 1518 1520 1521 1522 1522 1523 1523 1524 1524 1524 1524 1524 1524 1521
1474 1473 1472 1471 1470 1470 1471 1471 1472 1473 1475 1477 1479 1481 1484 1486 1489 1491 1494 1496 1498 1501 1503 1505 1507 1509 1510 1512 1513 1514 1515 1517 1517 1518 1519 1519 1520 1520 1519 1519 1519 1518 1518
1474 1471 1470 1469 1468 1468 1468 1468 1469 1470 1471 1473 1475 1477 1480 1482 1484 1487 1489 1491 1494 1497 1499 1501 1503 1505 1506 1507 1509 1510 1511 1512 1513 1514 1515 1515 1515 1515 1515 1515 1514 1513 1512
1473 1471 1469 1468 1466 1466 1465 1465 1466 1467 1468 1469 1471 1473 1476 1478 1480 1483 1485 1488 1490 1493 1495 1496 1498 1500 1502 1503 1505 1506 1507 1508 1509 1510 1510 1511 1511 1511 1511 1510 1509 1509 1507
1472 1470 1468 1466 1465 1464 1463 1463 1463 1464 1465 1466 1467 1469 1472 1474 1477 1479 1482 1484 1486 1489 1491 1492 1494 1496 1498 1499 1501 1502 1503 1504 1505 1506 1506 1507 1507 1506 1506 1506 1505 1504 1503
1472 1469 1467 1466 1464 1463 1462 1461 1461 1462 1462 1463 1463 1465 1468 1471 1473 1475 1478 1481 1483 1485 1487 1489 1491 1492 1494 1495 1497 1498 1499 1500 1501 1502 1502 1502 1502 1502 1502 1501 1500 1500 1498
1472 1469 1467 1465 1463 1462 1461 1460 1459 1460 1459 1460 1460 1462 1465 1467 1469 1472 1475 1477 1479 1481 1483 1485 1487 1489 1490 1492 1493 1494 1495 1496 1497 1497 1498 1498 1498 1498 1498 1497 1496 1495 1494
1472 1469 1466 1464 1463 1461 1460 1459 1458 1457 1457 1457 1458 1460 1462 1464 1466 1468 1471 1473 1475 1477 1479 1481 1483 1485 1486 1488 1490 1491 1492 1492 1493 1493 1493 1494 1494 1493 1493 1493 1492 1491 1490
1472 1469 1466 1464 1462 1461 1459 1458 1457 1456 1456 1456 1457 1458 1459 1461 1463 1466 1468 1470 1472 1474 1476 1478 1480 1481 1483 1485 1486 1487 1488 1489 1489 1489 1489 1489 1489 1489 1489 1488 1487 1486 1486
1471 1468 1466 1463 1462 1460 1458 1457 1456 1455 1455 1455 1455 1456 1457 1459 1461 1464 1465 1467 1469 1471 1473 1475 1477 1478 1480 1481 1483 1484 1484 1485 1485 1486 1486 1486 1485 1485 1485 1484 1483 1482 1481
1471 1468 1465 1463 1461 1459 1457 1456 1455 1454 1454 1454 1454 1455 1456 1457 1460 1462 1463 1466 1467 1468 1470 1472 1474 1475 1477 1478 1480 1480 1481 1481 1482 1482 1483 1482 1482 1481 1481 1480 1479 1478 1477
1469 1467 1464 1462 1460 1458 1457 1455 1454 1454 1453 1454 1454 1454 1455 1456 1458 1461 1463 1464 1465 1466 1468 1470 1471 1473 1474 1476 1477 1477 1478 1478 1478 1479 1479 1479 1478 1478 1477 1476 1475 1474 1473
1468 1466 1463 1461 1459 1458 1456 1454 1454 1453 1453 1453 1453 1454 1455 1456 1458 1459 1461 1462 1463 1465 1466 1467 1469 1470 1472 1473 1474 1474 1475 1475 1475 1475 1475 1475 1475 1474 1473 1473 1471 1470 1469
1466 1464 1462 1460 1458 1457 1455 1453 1453 1452 1452 1452 1453 1453 1455 1456 1457 1459 1460 1461 1462 1463 1464 1465 1467 1468 1469 1470 1471 1471 1472 1472 1472 1471 1471 1471 1471 1470 1469 1468 1467 1466 1465
1465 1463 1461 1459 1457 1456 1454 1453 1452 1452 1451 1451 1452 1453 1454 1455 1456 1458 1459 1460 1461 1462 1462 1464 1465 1466 1467 1467 1468 1468 1468 1468 1468 1467 1467 1467 1466 1465 1465 1464 1463 1461 1460
1463 1462 1460 1458 1456 1455 1454 1453 1452 1451 1451 1451 1452 1452 1453 1454 1456 1457 1457 1458 1459 1460 1461 1461 1462 1463 1463 1464 1464 1464 1464 1464 1464 1463 1463 1462 1462 1461 1460 1459 1458 1457 1456
1462 1461 1459 1457 1455 1454 1453 1452 1451 1451 1450 1450 1451 1452 1453 1454 1454 1455 1456 1457 1458 1459 1459 1459 1460 1460 1460 1461 1461 1461 1460 1460 1460 1459 1459 1458 1457 1457 1456 1455 1454 1453 1452
1461 1459 1457 1456 1454 1453 1452 1451 1451 1450 1450 1450 1450 1451 1452 1452 1453 1454 1455 1455 1456 1456 1457 1457 1457 1457 1458 1457 1457 1457 1457 1457 1456 1456 1455 1454 1454 1453 1452 1451 1450 1449 1448